User: anonymous   Login
Location: Unspecified
(0.0000°N, 0.0000°E)
Time: 19:31:04
(UTC+00:00)
Language:

YINHE-1 - Orbit

View from above orbital plane
View from above orbital plane
View from above satellite
View from above satellite

Ground track
Ground track

The orbit is defined by the following mean orbital elements,

1 45024U          26145.60797926 +.00000000 +00000-0 +59394-4 0 00006
2 45024  86.3922 125.6831 0015990  80.3612 279.9414 14.79101375    01
Epoch (UTC): 25 May 2026 14:35:29
Eccentricity: 0.0015990
inclination: 86.3922°
perigee height: 621 km
apogee height: 643 km
right ascension of ascending node: 125.6831°
argument of perigee: 80.3612°
revolutions per day: 14.79101375
mean anomaly at epoch: 279.9414°

The dashed part of the orbit path shows where the satellite is in the earth's shadow,  

DLR